Погода в Русской Тече

Россия / Челябинская область     55°45′30″N   62°11′35″E
темп.,
°C
ветер,
м/с
пор.,
м/с
влажн.,
%
обл.,
%
осадки,
мм/ч
давл.,
гПа
погр.,
м
3 марта, ср
ср323:00−11ююз5994100 0.1 1004260
02:00−8юз3795100 0.4 1002186
05:00−9ююз489597 0.6 1002254
08:00−9юз5994100 0.9 1000353
11:00−7юз588884 1.0 1000341
14:00−3юз58870 0.0 1000457
17:00−3ююз59893 0.0 1000329
20:00−6ююз359283 0.0 100085
4 марта, чт
чт423:00−7юз349190 0.0 100050
02:00−6юз2395100 0.1 99853
05:00−9юз239266 0.1 99821
08:00−10юз349015 0.0 99755
11:00−4зюз6108622 0.0 997570
14:00−4з7108452 0.0 998857
17:00−6з5118257 0.0 999590
20:00−10юз45860 0.0 100071
5 марта, пт
пт523:00−11ююз498930 0.0 1000147
02:00−7ююз61294100 0.4 997469
05:00−7ююз81685100 1.4 996500
08:00−6зюз6158421 0.0 997455
11:00−3зюз6128313 0.0 1000669
14:00−1юз6979100 0.0 10011060
17:000юз4885100 0.0 1001515
20:00−3с2298100 0.4 100162
6 марта, сб
сб623:00−4зюз0197100 0.8 100121
02:00−3ююв1298100 1.0 100084
05:00−6сз71295100 2.9 1001480
08:00−12з6138666 0.1 1006407
11:00−12зсз8138333 0.1 1009604
14:00−10з711820 0.0 1010712
17:00−10з4108425 0.0 1011612
20:00−14з3488100 0.0 101266
7 марта, вс
вс723:00−15з2289100 0.0 101120
02:00−15св0189100 0.0 101020
05:00−16св2289100 0.0 100920
08:00−16с2291100 0.0 100820
11:00−13сз2286100 0.0 1008202
14:00−10з238253 0.0 1008343
17:00−9ююз238927 0.0 1008112
20:00−14ююз449216 0.0 101058